When you browse on this site, cookies collect data to enhance your experience and personalize the content and advertising you see.
Visit our Privacy Policy to learn more. By continuing to use the site, you agree to this use of cookies and data.
  • In Portugal
  • List of Countries
  • For 7 days
  • Water Temperature
  • Satellite Maps
  • Weather Map
  • Weather Widgets
  • user-avatar
    Login

    Hourly Weather Taush

    Today, 16 February, Saturday

    Time Temperature Precipitation Wind Pressure Humidity
    00:00 -11°C° 0.4 mm 5 mps 739 mmHg 93%
    01:00 -11°C° 0.4 mm 5 mps 739 mmHg 93%
    02:00 -11°C° 0.2 mm 5 mps 738 mmHg 93%
    03:00 -11°C° 0.2 mm 5 mps 737 mmHg 93%
    04:00 -10°C° 0 mm 4 mps 737 mmHg 93%
    05:00 -10°C° 0.2 mm 4 mps 736 mmHg 93%
    06:00 -10°C° 0.2 mm 4 mps 736 mmHg 94%
    07:00 -10°C° 0.2 mm 4 mps 736 mmHg 94%
    08:00 -10°C° 0.3 mm 4 mps 736 mmHg 95%
    09:00 -9°C° 0.3 mm 4 mps 735 mmHg 95%
    10:00 -9°C° 0 mm 4 mps 735 mmHg 95%
    11:00 -8°C° 0.3 mm 4 mps 735 mmHg 95%
    12:00 -6°C° 0.3 mm 3 mps 735 mmHg 94%
    13:00 -5°C° 0.3 mm 3 mps 735 mmHg 94%
    14:00 -5°C° 0.1 mm 3 mps 735 mmHg 92%
    15:00 -5°C° 0.1 mm 3 mps 735 mmHg 90%
    16:00 -4°C° 0.1 mm 3 mps 736 mmHg 89%
    17:00 -5°C° 0 mm 3 mps 736 mmHg 90%
    18:00 -5°C° 0 mm 2 mps 736 mmHg 92%
    19:00 -6°C° 0 mm 2 mps 736 mmHg 93%
    20:00 -7°C° 0 mm 2 mps 737 mmHg 93%
    21:00 -6°C° 0 mm 1 mps 737 mmHg 93%
    22:00 -7°C° 0 mm 1 mps 737 mmHg 94%
    23:00 -7°C° 0.1 mm 1 mps 737 mmHg 93%

    Tomorrow, 17 February, Sunday

    Time Temperature Precipitation Wind Pressure Humidity
    00:00 -7°C° 0.1 mm 1 mps 737 mmHg 93%
    01:00 -8°C° 0.1 mm 1 mps 737 mmHg 93%
    02:00 -9°C° 0 mm 1 mps 737 mmHg 93%
    03:00 -10°C° 0 mm 1 mps 738 mmHg 92%
    04:00 -11°C° 0 mm 1 mps 738 mmHg 92%
    05:00 -12°C° 0 mm 1 mps 737 mmHg 92%
    06:00 -13°C° 0 mm 1 mps 737 mmHg 92%
    07:00 -14°C° 0 mm 1 mps 737 mmHg 93%
    08:00 -12°C° 0 mm 1 mps 737 mmHg 92%
    09:00 -10°C° 0 mm 1 mps 736 mmHg 92%
    10:00 -9°C° 0 mm 1 mps 736 mmHg 91%
    11:00 -8°C° 0 mm 2 mps 736 mmHg 91%
    12:00 -7°C° 0 mm 2 mps 735 mmHg 91%
    13:00 -7°C° 0 mm 3 mps 735 mmHg 91%
    14:00 -6°C° 0 mm 3 mps 734 mmHg 92%
    15:00 -6°C° 0 mm 3 mps 733 mmHg 92%
    16:00 -5°C° 0 mm 3 mps 733 mmHg 92%
    17:00 -5°C° 0.1 mm 4 mps 732 mmHg 92%
    18:00 -5°C° 0.1 mm 4 mps 732 mmHg 92%
    19:00 -4°C° 0.1 mm 4 mps 731 mmHg 91%
    20:00 -5°C° 0.1 mm 5 mps 731 mmHg 92%
    21:00 -6°C° 0.1 mm 5 mps 730 mmHg 92%
    22:00 -6°C° 0.1 mm 5 mps 729 mmHg 93%
    23:00 -6°C° 0.1 mm 5 mps 729 mmHg 92%

    Day after tomorrow, 18 February, Monday

    Time Temperature Precipitation Wind Pressure Humidity
    00:00 -6°C° 0.1 mm 5 mps 728 mmHg 92%
    01:00 -6°C° 0.1 mm 5 mps 727 mmHg 91%
    02:00 -6°C° 0.2 mm 5 mps 727 mmHg 92%
    03:00 -7°C° 0.2 mm 5 mps 727 mmHg 92%
    04:00 -7°C° 0.2 mm 5 mps 726 mmHg 92%
    05:00 -7°C° 0.3 mm 4 mps 726 mmHg 93%
    06:00 -7°C° 0.3 mm 4 mps 726 mmHg 94%
    07:00 -7°C° 0.3 mm 3 mps 725 mmHg 95%
    08:00 -6°C° 0.2 mm 3 mps 726 mmHg 94%
    09:00 -6°C° 0.2 mm 3 mps 726 mmHg 94%
    10:00 -6°C° 0.2 mm 3 mps 726 mmHg 93%
    11:00 -4°C° 0.2 mm 2 mps 726 mmHg 92%
    12:00 -4°C° 0.2 mm 2 mps 727 mmHg 90%
    13:00 -1°C° 0.2 mm 1 mps 727 mmHg 88%
    14:00 -1°C° 0.2 mm 1 mps 727 mmHg 89%
    15:00 -1°C° 0.2 mm 1 mps 728 mmHg 90%
    16:00 -1°C° 0.2 mm 1 mps 728 mmHg 90%
    17:00 -3°C° 0.1 mm 2 mps 729 mmHg 91%
    18:00 -4°C° 0.1 mm 2 mps 730 mmHg 92%
    19:00 -6°C° 0.1 mm 3 mps 730 mmHg 93%
    20:00 -6°C° 0.1 mm 3 mps 731 mmHg 93%
    21:00 -7°C° 0.1 mm 4 mps 732 mmHg 93%
    22:00 -5°C° 0.1 mm 4 mps 733 mmHg 92%
    23:00 -8°C° 0.1 mm 6 mps 734 mmHg 91%

    19 February, Tuesday

    Time Temperature Precipitation Wind Pressure Humidity
    00:00 -9°C° 0.1 mm 7 mps 735 mmHg 89%
    01:00 -10°C° 0.1 mm 8 mps 736 mmHg 87%
    02:00 -12°C° 0 mm 8 mps 737 mmHg 86%
    03:00 -15°C° 0 mm 8 mps 738 mmHg 85%
    04:00 -17°C° 0 mm 8 mps 739 mmHg 84%
    05:00 -18°C° 0 mm 7 mps 740 mmHg 81%
    06:00 -19°C° 0 mm 7 mps 741 mmHg 79%
    07:00 -18°C° 0 mm 6 mps 741 mmHg 76%
    08:00 -19°C° 0 mm 7 mps 742 mmHg 75%
    09:00 -19°C° 0 mm 7 mps 743 mmHg 74%
    10:00 -18°C° 0 mm 7 mps 744 mmHg 72%
    11:00 -16°C° 0 mm 6 mps 744 mmHg 73%
    12:00 -14°C° 0 mm 5 mps 745 mmHg 74%
    13:00 -13°C° 0 mm 5 mps 745 mmHg 75%
    14:00 -12°C° 0 mm 4 mps 745 mmHg 78%
    15:00 -12°C° 0 mm 3 mps 746 mmHg 81%
    16:00 -10°C° 0 mm 2 mps 746 mmHg 85%
    17:00 -12°C° 0 mm 2 mps 746 mmHg 86%
    18:00 -13°C° 0 mm 2 mps 746 mmHg 88%
    19:00 -13°C° 0 mm 2 mps 746 mmHg 90%
    20:00 -14°C° 0 mm 3 mps 746 mmHg 89%
    21:00 -14°C° 0 mm 3 mps 746 mmHg 89%
    22:00 -15°C° 0 mm 4 mps 746 mmHg 88%
    23:00 -14°C° 0.1 mm 4 mps 746 mmHg 90%

    20 February, Wednesday

    Time Temperature Precipitation Wind Pressure Humidity
    00:00 -14°C° 0.1 mm 4 mps 746 mmHg 92%
    01:00 -14°C° 0.1 mm 4 mps 745 mmHg 94%
    02:00 -14°C° 0 mm 4 mps 745 mmHg 94%
    03:00 -14°C° 0 mm 4 mps 745 mmHg 94%
    04:00 -14°C° 0 mm 4 mps 745 mmHg 95%
    05:00 -14°C° 0.1 mm 4 mps 745 mmHg 95%
    06:00 -12°C° 0.1 mm 4 mps 745 mmHg 95%
    07:00 -12°C° 0.1 mm 4 mps 745 mmHg 95%
    08:00 -12°C° 0 mm 4 mps 745 mmHg 95%
    09:00 -12°C° 0 mm 5 mps 746 mmHg 95%
    10:00 -12°C° 0 mm 5 mps 746 mmHg 94%
    11:00 -11°C° 0.1 mm 5 mps 745 mmHg 94%
    12:00 -11°C° 0.1 mm 6 mps 745 mmHg 94%
    13:00 -10°C° 0.1 mm 6 mps 745 mmHg 93%
    14:00 -10°C° 0.1 mm 6 mps 744 mmHg 93%
    15:00 -9°C° 0.1 mm 7 mps 744 mmHg 92%
    16:00 -9°C° 0.1 mm 7 mps 744 mmHg 91%
    17:00 -9°C° 0.1 mm 7 mps 743 mmHg 91%
    18:00 -9°C° 0.1 mm 7 mps 743 mmHg 91%
    19:00 -11°C° 0.1 mm 7 mps 743 mmHg 91%
    20:00 -11°C° 0 mm 7 mps 743 mmHg 91%
    21:00 -11°C° 0 mm 7 mps 742 mmHg 90%
    22:00 -11°C° 0 mm 7 mps 742 mmHg 90%
    23:00 -11°C° 0 mm 7 mps 742 mmHg 90%

    21 February, Thursday

    Time Temperature Precipitation Wind Pressure Humidity
    00:00 -11°C° 0 mm 7 mps 742 mmHg 90%
    01:00 -11°C° 0 mm 7 mps 742 mmHg 89%
    02:00 -11°C° 0.1 mm 7 mps 742 mmHg 90%
    03:00 -12°C° 0.1 mm 7 mps 742 mmHg 91%
    04:00 -12°C° 0.1 mm 7 mps 741 mmHg 92%
    05:00 -12°C° 0.2 mm 7 mps 741 mmHg 92%
    06:00 -12°C° 0.2 mm 6 mps 741 mmHg 92%
    07:00 -12°C° 0.2 mm 6 mps 741 mmHg 92%
    08:00 -12°C° 0.1 mm 6 mps 741 mmHg 92%
    09:00 -11°C° 0.1 mm 6 mps 742 mmHg 92%
    10:00 -11°C° 0.1 mm 6 mps 742 mmHg 92%
    11:00 -11°C° 0.2 mm 6 mps 741 mmHg 92%
    12:00 -11°C° 0.2 mm 6 mps 741 mmHg 92%
    13:00 -10°C° 0.2 mm 6 mps 741 mmHg 92%
    14:00 -10°C° 0.3 mm 6 mps 741 mmHg 92%
    15:00 -10°C° 0.3 mm 6 mps 741 mmHg 92%
    16:00 -10°C° 0.3 mm 6 mps 741 mmHg 92%
    17:00 -10°C° 0.2 mm 6 mps 741 mmHg 92%
    18:00 -10°C° 0.2 mm 6 mps 741 mmHg 91%
    19:00 -10°C° 0.2 mm 6 mps 741 mmHg 91%
    20:00 -9°C° 0.2 mm 6 mps 741 mmHg 91%
    21:00 -9°C° 0.2 mm 6 mps 741 mmHg 92%
    22:00 -9°C° 0.2 mm 6 mps 741 mmHg 92%
    23:00 -8°C° 0.2 mm 6 mps 741 mmHg 92%
    Show more